Regional Weather Roundup
Issued by NWS

Home | Current Version | Previous Version | Text Only | Print | Product List | Glossary On
Versions: 1 2 3 4 5 6 7 8 9 10 11 12 13 14 15 16 17 18 19 20 21 22 23 24 25 26 27 28 29 30 31 32 33 34 35 36 37 38 39 40 41 42 43 44 45 46 47 48 49 50
000
ASCA42 TJSJ 051710
RWRPR
PUERTO RICO/U.S. VIRGIN ISLANDS HOURLY WEATHER ROUNDUP
NATIONAL WEATHER SERVICE SAN JUAN PR
100 PM AST TUE MAY 05 2015

PRZ001-004-051800-
PUERTO RICO

CITY           SKY/WX    TMP DP  RH WIND       PRES   REMARKS
SAN JUAN LMM   MOSUNNY   90  73  58 E21       30.11F HX  98
MAYAGUEZ       MOSUNNY   91  70  49 SE10      30.12F HX  97
AGUADILLA      SUNNY     86  72  62 E21       30.13  HX  92
CEIBA          SUNNY     90  72  55 E13       30.13F HX  96
$$

PRZ006-007-051800-
U.S. VIRGIN ISLANDS

CITY           SKY/WX    TMP DP  RH WIND       PRES   REMARKS
CHARLOTTE AMA  MOSUNNY   88  72  58 SE15G23   30.10F HX  94
CHRISTIANSTED  MOSUNNY   88  70  55 E14G24    30.10F HX  92
$$

HOURLY WEATHER ROUNDUP FOR THE NEWS MEDIA

CITY           SKY/WX    TMP DP  RH WIND       PRES   REMARKS
ORLANDO        PTSUNNY   80  63  55 E17G23    30.18F
NEW YORK       CLOUDY    79  52  38 N5        30.21F
NEWARK         PTSUNNY   85  55  35 NW7       30.20F
CHICAGO        FOG       50  49  96 N10       30.24S VSB 1/2
HARTFORD       PTSUNNY   72  54  53 NE3       30.20S
BOSTON         PTSUNNY   67  59  75 S8        30.20F
DALLAS         CLOUDY    76  63  64 SE21      30.04F
PHILADELPHIA   MOSUNNY   80  55  42 SW10      30.22F
LOS ANGELES    CLOUDY    59  50  72 SW7       30.00S
WASHINGTON DC  MOSUNNY   80  57  45 VRB3      30.25F


USA.gov is the U.S. government's official web portal to all federal, state and local government web resources and services.